Temperature
18 19 19 20 20 19 19 17 18 18 18 19 18 18 18 19 19 19 20 20 21 21 21 21 21 21 21 21 21 20 20 20 20 19 19 19 18 18 18 18 18 18 18 18
18 19 19 19 20 20 19 19 18 18 18 18 18 18 18 18 18 19 19 20 20 21 21 21 21 20 21 20 20 20 20 20 19 19 19 18 18 18 18 18 18 17 17 17
16 17 19 18 19 19 19 18 18 18 18 17 17 17 17 18 18 19 19 19 20 20 20 20 20 20 20 20 20 19 19 19 19 19 18 18 18 18 17 17 17 17 17 17
14 17 18 18 18 18 18 18 17 17 16 16 17 17 18 18 18 18 18 19 19 19 20 20 20 20 20 19 19 19 19 19 18 18 18 18 18 18 17 17 17 17 16 17
12 15 16 17 18 18 17 17 16 16 16 16 17 17 17 18 18 18 18 19 19 19 19 19 19 19 19 19 18 18 18 18 18 18 18 17 17 17 17 17 16 16 16 16
12 15 15 17 18 18 17 16 16 16 15 15 16 15 16 18 18 18 18 18 19 19 19 19 19 19 18 18 18 18 18 18 18 18 17 17 17 17 17 16 16 16 16 16
12 14 14 16 16 17 17 16 16 16 16 15 15 16 17 17 17 18 18 18 18 18 18 18 18 18 18 18 18 18 18 18 17 17 17 17 17 16 16 16 16 16 16 15
11 13 14 16 15 15 15 16 16 16 16 16 16 16 17 17 17 17 17 17 18 18 18 18 18 17 17 18 18 17 17 17 17 17 17 17 16 16 16 15 15 15 15 15
12 13 14 14 15 16 16 16 16 16 16 16 16 16 16 17 17 17 17 17 17 17 17 17 17 17 17 17 17 17 16 16 16 16 16 16 16 16 15 15 15 15 14 14
11 12 13 14 15 16 16 16 16 16 16 16 16 16 16 16 16 16 16 17 17 17 17 17 17 17 16 16 16 16 16 16 15 15 15 15 15 15 15 15 15 15 14 14
11 12 13 15 15 16 16 16 16 16 16 16 16 16 15 15 15 15 16 16 16 16 16 16 16 16 16 16 15 15 15 15 15 15 15 15 14 14 14 14 14 14 14 14
11 12 12 14 15 15 15 15 15 15 15 16 15 15 15 15 15 15 15 15 15 15 15 15 15 15 15 15 15 15 14 14 14 14 14 14 14 14 14 14 14 14 14 13
14 14 14 14 15 15 15 15 15 15 15 15 15 15 15 15 15 15 15 15 15 15 15 15 15 15 14 14 14 14 14 14 14 13 13 13 13 13 13 13 13 13 13 13
13 13 13 14 14 14 14 14 14 14 14 14 14 14 14 14 14 14 14 15 15 14 14 14 14 14 14 14 13 13 13 13 13 13 13 13 13 13 13 13 13 13 13 13
13 13 13 13 14 14 14 14 14 14 14 14 14 14 14 14 14 14 14 14 14 14 14 14 14 14 13 13 13 13 13 13 12 12 12 12 13 13 13 13 12 12 12 12
13 13 13 13 13 13 13 13 13 14 14 14 14 14 14 14 14 14 13 13 13 13 13 13 13 13 13 13 13 13 12 12 12 12 12 12 12 12 12 12 12 12 12 12
12 12 12 12 13 13 13 13 13 13 13 13 13 13 13 13 13 13 13 13 13 13 13 13 13 13 13 12 12 12 12 12 12 12 12 12 12 12 12 12 12 11 11 11
12 12 12 12 12 12 13 13 13 13 13 13 13 13 13 13 13 13 13 13 13 13 13 13 12 12 12 12 12 12 12 12 12 11 11 11 11 11 11 11 11 11 11 11
12 12 12 12 12 12 13 13 13 13 13 13 13 13 13 13 12 13 13 12 12 12 12 12 12 12 12 12 12 12 11 11 11 11 11 11 11 11 11 11 11 10 10 10
12 12 12 12 12 12 12 13 13 13 13 13 13 13 12 12 12 12 12 12 12 12 12 12 12 12 12 11 11 11 11 11 11 11 11 11 10 10 10 10 10 10 10 10
12 12 12 12 12 12 12 12 12 12 12 12 12 12 12 12 12 12 12 12 12 12 12 12 12 11 11 11 11 11 11 11 11 11 10 10 10 10 10 10 10 10 10 9
11 11 11 11 12 12 12 12 12 12 12 12 12 12 12 12 12 12 12 12 11 11 11 11 11 11 11 11 11 11 10 10 10 10 10 10 10 10 10 10 10 9 9 9
11 11 11 11 11 11 11 12 12 12 12 12 12 12 12 12 12 12 11 11 11 11 11 11 11 11 11 10 10 10 10 10 10 10 10 10 9 9 9 9 9 9 9 9
11 11 11 11 11 11 11 11 11 11 12 12 12 11 11 11 11 11 11 11 11 11 11 11 10 10 10 10 10 10 10 10 9 9 9 9 9 9 9 9 9 9 8 8
11 10 11 11 11 11 11 11 11 11 11 11 11 11 11 11 11 11 11 11 11 10 10 10 10 10 10 10 10 10 9 9 9 9 9 9 8 8 8 8 8 8 8 8
10 10 10 10 10 10 11 11 11 11 11 11 11 11 11 11 11 11 10 10 10 10 10 10 10 10 10 9 9 9 9 9 9 8 8 8 8 8 8 8 8 8 8 8
10 10 10 10 10 10 11 11 11 11 11 11 11 10 10 10 10 10 10 10 10 10 10 10 10 9 9 9 9 9 8 8 8 8 8 8 7 7 7 7 7 7 7 7
Wind_Speed
4 4 3 4 4 4 5 7 8 8 8 8 6 6 5 3 2 1 1 1 1 1 2 2 3 4 5 5 5 6 7 7 8 7 7 6 6 5 5 5 6 6 6 6
3 3 3 4 5 4 4 4 5 4 7 6 4 2 2 3 3 2 2 2 1 0 0 1 2 3 4 4 4 5 5 6 6 6 6 6 6 6 5 5 5 5 6 7
4 5 3 6 6 5 3 3 5 6 7 4 2 3 4 4 3 3 2 2 1 1 2 2 3 3 4 4 4 4 4 5 5 6 6 7 6 5 5 5 5 5 5 5
2 1 6 8 3 4 4 3 3 4 4 4 4 3 2 1 2 3 3 2 2 2 2 2 2 2 2 3 3 4 4 5 5 6 7 6 6 6 6 5 5 5 6 5
3 4 7 7 3 4 4 3 2 2 2 2 1 3 2 1 1 3 3 2 2 2 2 2 2 2 2 3 3 4 5 5 6 7 7 7 7 7 6 5 5 5 5 5
4 4 7 7 3 1 4 3 3 2 2 1 3 1 4 3 2 2 2 1 1 1 1 1 2 2 3 3 4 5 5 5 5 5 7 7 7 6 4 5 6 5 4 5
5 6 8 6 4 2 4 6 3 2 3 2 3 4 4 2 2 1 2 2 1 0 1 2 2 1 3 3 4 4 3 3 4 5 5 6 6 5 5 5 4 4 4 4
5 5 8 3 2 3 5 3 2 3 3 3 3 2 1 1 1 1 2 2 1 1 1 2 1 2 2 3 3 1 1 2 3 3 4 5 5 5 5 5 4 4 3 4
7 7 5 3 3 4 3 2 3 3 4 3 2 2 2 2 2 2 2 2 2 1 2 3 2 2 3 4 2 1 2 3 3 3 3 4 5 5 4 4 4 4 4 5
4 6 6 5 4 3 2 3 3 3 3 3 3 3 3 2 2 2 2 2 1 1 2 4 3 2 3 3 2 2 3 3 2 2 2 2 3 4 4 5 5 5 5 4
5 7 6 6 4 3 3 3 2 2 2 3 3 3 3 3 3 3 3 3 2 2 3 4 4 3 3 2 2 2 2 2 1 2 2 2 2 3 4 4 6 6 5 5
8 8 6 8 7 5 4 5 4 3 2 2 3 4 3 4 4 4 4 3 3 3 4 4 3 3 3 2 2 2 1 1 2 2 2 2 2 1 2 3 3 4 5 5
9 8 8 9 8 6 4 4 4 4 4 4 3 4 4 4 4 3 4 4 4 4 4 3 3 3 3 2 2 2 2 2 2 1 2 2 3 3 2 2 1 2 3 4
8 5 7 7 7 6 5 4 3 3 4 4 4 3 4 4 3 4 5 5 4 3 3 3 2 3 3 2 2 2 2 2 2 2 2 2 2 3 3 3 2 2 2 2
9 8 9 8 6 5 4 3 3 4 4 4 3 4 4 5 5 6 5 4 2 2 3 2 3 4 3 1 2 2 2 2 2 1 1 1 2 2 2 2 2 2 2 2
8 8 7 6 6 6 5 5 6 7 5 5 4 5 5 6 5 4 4 3 2 3 4 3 4 4 3 2 2 1 2 2 2 1 1 2 1 2 2 2 2 2 2 3
6 6 6 6 7 7 7 7 7 7 6 6 6 5 4 3 3 4 4 3 4 4 4 4 5 4 3 3 3 2 2 2 2 1 2 2 2 2 2 2 2 2 3 3
7 8 7 7 7 7 7 7 6 6 6 7 5 4 4 4 5 5 4 3 2 3 4 4 4 3 3 3 3 2 2 2 2 2 1 1 2 2 2 2 2 3 2 2
4 5 5 5 6 6 6 6 6 6 5 4 4 4 5 5 5 5 3 2 2 3 4 3 3 3 3 3 2 2 2 2 1 1 1 1 1 1 2 2 2 2 2 1
3 3 3 4 4 3 4 4 3 3 4 3 3 3 3 4 4 3 2 3 3 4 4 3 2 2 3 3 2 2 2 2 2 1 1 1 1 1 2 2 2 2 2 2
3 3 2 2 2 2 2 2 2 3 3 3 4 4 4 3 2 2 2 2 3 2 1 2 2 2 2 1 1 1 2 2 2 2 2 1 1 2 2 2 2 2 2 2
3 3 3 2 2 3 3 2 2 3 2 2 3 3 3 2 2 1 2 3 3 2 1 1 1 2 1 1 1 1 1 1 1 1 1 1 2 2 2 2 2 2 2 2
3 3 3 2 1 2 3 3 2 1 1 2 2 3 3 3 3 3 3 2 1 2 1 1 2 1 1 1 1 1 1 1 0 0 1 1 1 1 1 2 1 1 2 2
4 3 3 2 2 2 3 3 3 2 1 1 2 3 3 2 2 2 3 2 2 1 0 1 0 0 1 1 1 1 1 0 0 0 0 0 1 1 1 1 1 1 2 2
4 3 3 2 2 2 2 3 3 3 2 2 1 1 1 2 2 2 1 1 1 0 0 0 1 1 1 1 1 1 0 0 0 0 0 0 0 0 1 1 1 1 2 2
3 3 2 2 2 2 2 1 1 1 1 1 2 1 1 0 0 0 0 1 1 1 1 0 0 1 1 1 1 1 1 1 1 1 0 0 0 0 1 1 1 1 1 2
4 3 3 3 3 3 2 1 0 1 1 0 1 1 1 1 1 1 1 1 1 1 1 1 1 1 1 1 1 1 1 1 1 1 1 0 0 0 1 1 1 1 1 1
Wind_Direction
236 244 221 229 242 210 193 190 194 227 229 251 258 252 247 239 241 240 259 254 194 174 194 198 187 189 193 191 188 189 190 195 202 201 198 194 199 205 207 208 213 213 218 222
295 288 266 258 254 236 225 206 216 235 257 261 279 263 220 220 212 209 227 247 272 322 199 189 182 190 193 193 194 185 187 198 196 191 190 191 196 199 203 209 215 212 219 222
258 294 334 262 238 211 205 212 191 216 244 271 283 263 234 222 204 203 213 238 265 271 249 221 210 193 190 195 185 182 190 194 189 188 194 199 198 191 202 209 215 218 220 219
198 117 226 245 255 188 184 227 226 232 250 250 236 242 229 195 200 211 206 210 236 251 254 252 231 213 180 167 175 183 187 195 192 188 195 196 194 200 205 210 213 223 227 225
152 208 267 288 250 172 172 254 257 230 273 295 330 51 356 306 235 228 232 231 242 255 250 255 242 216 171 176 184 182 188 199 204 197 197 197 200 206 207 204 213 220 223 225
154 190 233 247 266 210 128 257 258 209 235 236 105 96 275 296 299 305 305 284 258 274 284 262 258 198 170 190 197 211 212 213 210 204 203 205 210 209 204 204 213 214 225 226
184 219 257 261 292 84 165 236 247 213 221 186 189 219 250 283 307 306 303 283 259 236 286 277 271 187 183 201 221 234 231 225 220 213 209 207 207 206 201 204 204 210 223 236
167 202 249 284 89 176 221 252 232 228 230 223 240 265 258 234 257 294 299 296 278 253 275 286 255 176 203 227 242 246 237 236 239 227 217 206 196 204 202 198 204 214 228 250
198 219 252 284 240 249 211 223 240 230 243 218 222 271 284 276 276 273 275 288 294 259 266 279 257 202 215 245 239 210 205 221 232 236 223 203 197 201 204 201 207 218 223 239
262 270 279 282 270 270 251 242 246 235 226 198 209 242 265 266 279 284 285 284 288 274 268 281 281 251 234 250 231 202 219 221 217 227 229 209 202 203 206 207 208 214 222 235
264 278 299 293 276 270 283 279 262 237 216 209 201 244 245 235 247 263 280 283 260 242 253 265 274 272 262 239 200 191 225 247 249 244 220 199 201 216 218 220 215 211 219 221
243 246 238 265 274 276 272 266 246 223 251 245 210 223 233 235 237 240 250 263 269 259 252 263 266 265 272 253 185 181 216 250 248 253 221 192 188 246 279 242 249 233 227 220
244 254 247 263 273 273 263 252 241 221 216 232 242 232 229 242 246 241 247 248 251 258 259 263 263 269 275 261 215 199 214 235 239 234 224 203 198 202 244 306 292 240 245 237
244 250 268 264 261 267 259 256 256 250 241 229 233 240 235 236 242 244 248 245 237 241 251 256 262 271 267 231 201 208 213 223 227 228 226 220 212 211 212 226 260 286 289 260
251 237 243 258 264 267 261 251 249 254 252 254 246 242 233 226 232 243 253 251 240 240 250 249 253 269 272 224 199 209 219 222 220 222 229 230 223 211 205 218 241 271 301 304
263 260 245 245 254 260 258 247 242 247 245 245 244 240 234 230 237 248 254 237 222 241 249 246 252 259 251 221 204 211 217 221 211 207 231 228 223 211 210 217 229 246 261 267
261 256 242 242 244 246 245 244 241 242 238 237 237 236 229 229 243 256 261 251 238 244 242 234 249 258 242 217 206 213 217 227 224 213 224 226 226 226 223 222 231 245 259 256
245 244 236 229 232 240 248 248 245 242 237 234 230 220 220 225 234 244 252 259 262 271 262 240 237 247 246 233 215 209 203 211 215 211 214 219 222 224 224 224 232 243 267 267
279 268 258 246 238 233 239 243 241 238 235 228 218 224 230 234 236 240 238 228 237 260 273 265 248 240 248 247 219 192 187 191 205 225 222 216 227 237 234 230 236 244 244 246
305 296 274 260 251 235 240 243 238 243 242 222 215 225 238 246 241 235 222 231 243 248 258 262 251 246 245 234 203 189 190 193 206 222 212 216 231 248 251 243 238 241 244 242
334 323 319 308 303 295 268 248 229 243 250 212 198 211 225 241 234 206 199 257 278 267 259 252 244 243 236 210 190 183 187 195 214 221 215 213 224 243 253 251 245 244 245 246
340 344 334 331 329 324 314 286 246 235 229 208 200 203 206 229 236 231 232 233 250 254 244 238 240 233 215 179 172 170 193 207 220 216 212 215 223 239 256 261 256 255 250 248
325 327 327 323 323 317 321 321 300 265 236 222 216 212 209 219 216 210 257 263 243 243 230 225 234 213 175 146 147 162 169 172 193 219 238 230 221 230 250 265 268 264 259 257
346 339 333 333 360 5 340 329 329 327 305 267 231 213 204 211 258 247 231 239 250 253 235 226 199 131 125 125 128 132 146 180 189 210 278 278 275 278 282 289 289 276 264 260
344 349 355 3 359 331 316 330 350 359 5 4 349 277 215 196 210 247 252 196 184 103 64 139 135 106 96 106 117 130 148 217 180 158 164 206 287 317 337 337 325 309 297 288
339 333 318 296 288 291 299 316 345 337 5 11 349 332 341 3 208 268 73 108 113 132 146 142 113 83 90 109 115 131 140 126 121 129 137 180 288 311 326 331 337 320 303 298
350 351 353 350 343 336 338 348 321 308 303 213 318 338 360 29 54 72 87 92 96 100 95 81 84 109 122 125 120 120 124 129 129 128 125 111 53 317 322 341 322 308 305 307
Height
1483 1480 1479 1478 1478 1478 1482 1486 1491 1485 1483 1474 1469 1467 1465 1465 1465 1465 1465 1465 1466 1466 1467 1468 1469 1472 1475 1478 1480 1482 1484 1486 1488 1490 1493 1495 1497 1499 1500 1501 1502 1503 1505 1506
1483 1479 1479 1478 1475 1474 1475 1476 1479 1478 1477 1467 1466 1465 1464 1464 1464 1464 1464 1465 1465 1466 1466 1467 1468 1470 1472 1474 1476 1478 1480 1482 1484 1486 1488 1490 1492 1494 1496 1497 1497 1498 1500 1500
1493 1484 1479 1484 1473 1472 1472 1472 1473 1476 1472 1466 1465 1463 1463 1463 1463 1463 1464 1464 1465 1465 1465 1466 1467 1468 1470 1471 1473 1474 1476 1478 1480 1482 1483 1486 1488 1489 1491 1492 1493 1494 1494 1495
1496 1489 1494 1478 1465 1465 1468 1468 1468 1467 1466 1464 1462 1461 1461 1462 1462 1462 1463 1463 1464 1464 1465 1465 1466 1467 1468 1469 1470 1471 1473 1475 1476 1478 1479 1481 1483 1484 1485 1487 1488 1489 1490 1490
1500 1497 1487 1473 1465 1464 1468 1469 1466 1465 1464 1462 1461 1461 1461 1461 1461 1462 1462 1463 1463 1464 1464 1464 1465 1466 1466 1467 1468 1469 1469 1471 1472 1474 1475 1476 1478 1479 1480 1482 1483 1484 1485 1486
1496 1493 1491 1473 1462 1460 1464 1471 1464 1463 1463 1462 1461 1465 1463 1460 1461 1461 1461 1462 1463 1463 1463 1463 1463 1464 1464 1464 1465 1466 1466 1468 1469 1470 1471 1472 1474 1475 1476 1478 1478 1479 1480 1481
1491 1489 1480 1465 1461 1460 1474 1470 1462 1461 1461 1461 1461 1462 1461 1460 1460 1460 1460 1461 1462 1462 1461 1461 1461 1460 1461 1462 1462 1462 1463 1464 1465 1466 1467 1468 1470 1471 1472 1473 1474 1474 1475 1476
1489 1488 1481 1462 1461 1465 1464 1459 1459 1460 1460 1460 1460 1459 1458 1459 1459 1459 1460 1460 1460 1459 1459 1460 1459 1459 1458 1458 1458 1459 1460 1461 1462 1462 1463 1464 1465 1467 1468 1469 1469 1469 1471 1472
1477 1474 1464 1461 1460 1459 1459 1458 1458 1458 1458 1458 1458 1458 1458 1458 1458 1459 1459 1458 1458 1458 1458 1458 1458 1457 1457 1456 1457 1457 1457 1458 1458 1459 1459 1460 1461 1462 1463 1464 1464 1465 1466 1467
1471 1465 1461 1459 1457 1457 1457 1456 1456 1456 1456 1457 1457 1457 1456 1456 1457 1457 1457 1457 1456 1456 1456 1455 1455 1455 1454 1454 1454 1454 1454 1454 1454 1455 1455 1456 1457 1458 1458 1459 1459 1460 1461 1461
1469 1463 1459 1456 1456 1455 1454 1454 1453 1453 1454 1454 1454 1454 1454 1454 1455 1455 1455 1455 1454 1454 1453 1453 1453 1452 1452 1452 1451 1451 1450 1450 1450 1451 1451 1451 1452 1453 1454 1455 1455 1456 1456 1457
1465 1459 1459 1455 1454 1453 1452 1451 1451 1451 1451 1452 1452 1452 1452 1452 1452 1453 1452 1452 1452 1451 1451 1451 1450 1450 1449 1449 1448 1448 1447 1447 1447 1447 1447 1447 1448 1449 1451 1451 1452 1453 1453 1453
1456 1455 1454 1452 1451 1450 1449 1448 1449 1449 1449 1449 1450 1450 1450 1450 1450 1450 1450 1449 1449 1448 1448 1448 1447 1447 1447 1446 1446 1445 1445 1444 1444 1444 1444 1444 1444 1445 1446 1447 1448 1449 1449 1449
1452 1451 1449 1448 1447 1446 1446 1446 1446 1446 1446 1446 1447 1447 1447 1447 1447 1447 1447 1446 1446 1446 1445 1445 1445 1445 1444 1444 1443 1443 1442 1441 1441 1441 1441 1440 1441 1441 1442 1442 1443 1443 1444 1445
1446 1446 1445 1443 1443 1443 1443 1443 1443 1442 1443 1443 1444 1444 1444 1444 1443 1443 1443 1444 1443 1443 1442 1442 1442 1442 1442 1441 1441 1440 1440 1439 1438 1438 1437 1438 1438 1438 1438 1439 1439 1439 1439 1440
1440 1440 1440 1439 1439 1439 1439 1439 1439 1439 1439 1439 1440 1440 1440 1440 1440 1440 1441 1441 1440 1439 1439 1439 1439 1439 1439 1439 1438 1437 1437 1436 1435 1435 1435 1434 1434 1434 1435 1435 1435 1435 1435 1436
1435 1433 1433 1433 1434 1434 1435 1435 1435 1435 1435 1435 1436 1437 1437 1437 1436 1437 1437 1437 1437 1437 1437 1436 1436 1437 1436 1436 1435 1434 1434 1433 1433 1432 1432 1431 1432 1432 1432 1432 1432 1432 1432 1432
1430 1429 1429 1429 1430 1430 1430 1430 1431 1431 1431 1432 1433 1433 1433 1433 1433 1434 1434 1434 1434 1434 1434 1433 1433 1433 1433 1432 1432 1432 1431 1430 1430 1429 1429 1429 1429 1429 1429 1429 1429 1429 1429 1429
1425 1425 1425 1426 1426 1426 1426 1426 1427 1428 1428 1429 1429 1429 1430 1430 1430 1430 1431 1431 1430 1430 1430 1430 1430 1430 1429 1429 1429 1428 1428 1427 1427 1427 1426 1426 1426 1426 1426 1426 1426 1426 1426 1426
1423 1423 1422 1422 1423 1423 1423 1423 1424 1425 1425 1426 1426 1426 1427 1427 1427 1427 1427 1427 1427 1427 1427 1427 1427 1427 1426 1426 1426 1426 1425 1425 1425 1424 1424 1424 1423 1424 1424 1423 1423 1423 1423 1423
1421 1420 1420 1420 1421 1421 1421 1421 1422 1422 1422 1422 1423 1423 1424 1424 1424 1425 1424 1424 1424 1424 1424 1425 1425 1424 1424 1424 1424 1423 1423 1423 1422 1422 1422 1421 1421 1421 1421 1421 1420 1420 1420 1420
1420 1420 1419 1419 1420 1419 1420 1420 1420 1420 1420 1420 1420 1421 1421 1422 1422 1422 1422 1422 1422 1422 1422 1422 1423 1423 1422 1422 1422 1421 1421 1421 1420 1420 1420 1419 1419 1419 1418 1418 1417 1417 1417 1417
1420 1420 1419 1419 1419 1418 1419 1419 1418 1418 1418 1418 1419 1419 1419 1419 1419 1419 1419 1420 1420 1420 1420 1420 1421 1421 1420 1420 1420 1420 1419 1419 1419 1418 1418 1417 1417 1417 1416 1416 1415 1415 1414 1414
1420 1420 1419 1419 1418 1417 1417 1417 1417 1417 1417 1417 1417 1418 1418 1417 1417 1418 1418 1418 1418 1419 1419 1419 1418 1418 1418 1418 1418 1418 1417 1417 1417 1417 1416 1416 1415 1415 1414 1414 1413 1413 1412 1412
1421 1420 1419 1418 1417 1417 1417 1416 1416 1416 1416 1416 1416 1416 1417 1417 1416 1416 1416 1416 1416 1417 1417 1417 1417 1417 1416 1416 1416 1416 1416 1415 1415 1415 1414 1414 1413 1413 1412 1411 1411 1410 1410 1409
1422 1421 1420 1419 1418 1417 1417 1416 1416 1416 1416 1416 1416 1416 1416 1416 1415 1415 1415 1415 1415 1415 1415 1415 1415 1415 1415 1415 1415 1414 1414 1414 1413 1413 1412 1412 1411 1410 1410 1409 1409 1408 1408 1407
1423 1422 1421 1419 1419 1418 1417 1417 1416 1416 1416 1416 1415 1415 1415 1415 1415 1415 1415 1415 1415 1415 1415 1414 1414 1414 1414 1414 1413 1413 1413 1412 1412 1411 1410 1410 1409 1409 1408 1407 1407 1406 1406 1405